Time,TemperatureF,DewpointF,PressureIn,WindDirection,WindDirectionDegrees,WindSpeedMPH,WindSpeedGustMPH,Humidity,HourlyPrecipIn,Conditions,Clouds,dailyrainin,SoftwareType,DateUTC
2013-05-13 00:07:00,74.5,72.0,29.94,SE,127,0.0,1.0,93,0.00,,,0.00,weatherlink.com 1.10,2013-05-13 04:07:00,
2013-05-13 00:22:00,74.6,73.0,29.93,SE,131,0.0,2.0,93,0.00,,,0.00,weatherlink.com 1.10,2013-05-13 04:22:00,
2013-05-13 00:37:00,74.5,73.0,29.93,SE,131,0.0,1.0,94,0.00,,,0.00,weatherlink.com 1.10,2013-05-13 04:37:00,
2013-05-13 00:52:00,74.6,73.0,29.93,SE,131,0.0,1.0,94,0.00,,,0.00,weatherlink.com 1.10,2013-05-13 04:52:00,
2013-05-13 01:07:00,74.4,73.0,29.93,SE,131,0.0,1.0,94,0.00,,,0.00,weatherlink.com 1.10,2013-05-13 05:07:00,
2013-05-13 01:22:00,73.9,72.0,29.92,SE,130,0.0,1.0,94,0.00,,,0.00,weatherlink.com 1.10,2013-05-13 05:22:00,
2013-05-13 01:37:00,73.6,72.0,29.91,SE,128,0.0,2.0,93,0.00,,,0.00,weatherlink.com 1.10,2013-05-13 05:37:00,
2013-05-13 01:52:00,73.6,72.0,29.91,SE,132,0.0,2.0,93,0.00,,,0.00,weatherlink.com 1.10,2013-05-13 05:52:00,
2013-05-13 02:07:00,73.6,72.0,29.90,SE,133,1.0,1.0,93,0.00,,,0.00,weatherlink.com 1.10,2013-05-13 06:07:00,
2013-05-13 02:22:00,73.3,71.0,29.90,SE,128,1.0,2.0,93,0.00,,,0.00,weatherlink.com 1.10,2013-05-13 06:22:00,
2013-05-13 02:37:00,73.3,71.0,29.89,SE,136,0.0,1.0,93,0.00,,,0.00,weatherlink.com 1.10,2013-05-13 06:37:00,
2013-05-13 02:52:00,72.9,71.0,29.89,SE,136,0.0,0.0,94,0.00,,,0.00,weatherlink.com 1.10,2013-05-13 06:52:00,
2013-05-13 03:07:00,72.7,71.0,29.89,SE,136,0.0,0.0,94,0.00,,,0.00,weatherlink.com 1.10,2013-05-13 07:07:00,
2013-05-13 03:22:00,73.1,72.0,29.89,SE,136,0.0,0.0,95,0.00,,,0.00,weatherlink.com 1.10,2013-05-13 07:22:00,
2013-05-13 03:37:00,73.1,72.0,29.89,SE,136,0.0,1.0,95,0.00,,,0.00,weatherlink.com 1.10,2013-05-13 07:37:00,
2013-05-13 03:52:00,72.8,71.0,29.90,SE,136,0.0,0.0,95,0.00,,,0.00,weatherlink.com 1.10,2013-05-13 07:52:00,
2013-05-13 04:07:00,72.3,71.0,29.90,SE,136,0.0,0.0,95,0.00,,,0.00,weatherlink.com 1.10,2013-05-13 08:07:00,
2013-05-13 04:22:00,72.2,71.0,29.90,SE,136,0.0,1.0,95,0.00,,,0.00,weatherlink.com 1.10,2013-05-13 08:22:00,
2013-05-13 04:37:00,72.0,71.0,29.91,SE,136,0.0,0.0,95,0.00,,,0.00,weatherlink.com 1.10,2013-05-13 08:37:00,
2013-05-13 04:52:00,71.9,71.0,29.91,SE,136,0.0,1.0,95,0.00,,,0.00,weatherlink.com 1.10,2013-05-13 08:52:00,
2013-05-13 05:07:00,71.8,70.0,29.91,SE,135,0.0,1.0,95,0.00,,,0.00,weatherlink.com 1.10,2013-05-13 09:07:00,
2013-05-13 05:22:00,71.7,70.0,29.92,SE,135,0.0,0.0,95,0.00,,,0.00,weatherlink.com 1.10,2013-05-13 09:22:00,
2013-05-13 05:37:00,71.8,71.0,29.92,SE,136,0.0,0.0,96,0.00,,,0.00,weatherlink.com 1.10,2013-05-13 09:37:00,
2013-05-13 05:52:00,71.9,71.0,29.92,SE,136,0.0,1.0,96,0.00,,,0.00,weatherlink.com 1.10,2013-05-13 09:52:00,
2013-05-13 06:07:00,71.8,71.0,29.93,SE,135,0.0,1.0,96,0.00,,,0.00,weatherlink.com 1.10,2013-05-13 10:07:00,
2013-05-13 06:22:00,72.1,71.0,29.93,SE,134,0.0,1.0,96,0.00,,,0.00,weatherlink.com 1.10,2013-05-13 10:22:00,
2013-05-13 06:37:00,73.0,72.0,29.94,NNE,19,0.0,2.0,95,0.00,,,0.00,weatherlink.com 1.10,2013-05-13 10:37:00,
2013-05-13 06:52:00,74.9,73.0,29.94,NNE,19,0.0,1.0,94,0.00,,,0.00,weatherlink.com 1.10,2013-05-13 10:52:00,
2013-05-13 07:07:00,76.9,74.0,29.95,ENE,58,0.0,1.0,90,0.00,,,0.00,weatherlink.com 1.10,2013-05-13 11:07:00,
2013-05-13 07:22:00,79.1,74.0,29.95,East,82,0.0,1.0,85,0.00,,,0.00,weatherlink.com 1.10,2013-05-13 11:22:00,
2013-05-13 07:37:00,80.7,74.0,29.95,East,82,0.0,1.0,81,0.00,,,0.00,weatherlink.com 1.10,2013-05-13 11:37:00,
2013-05-13 07:52:00,82.1,75.0,29.96,East,82,0.0,1.0,79,0.00,,,0.00,weatherlink.com 1.10,2013-05-13 11:52:00,
2013-05-13 08:07:00,83.3,76.0,29.96,East,82,0.0,1.0,78,0.00,,,0.00,weatherlink.com 1.10,2013-05-13 12:07:00,
2013-05-13 08:23:00,85.6,76.0,29.96,WSW,239,0.0,1.0,73,0.00,,,0.00,weatherlink.com 1.10,2013-05-13 12:23:00,
2013-05-13 08:38:00,85.2,76.0,29.96,ENE,58,2.0,2.0,73,0.00,,,0.00,weatherlink.com 1.10,2013-05-13 12:38:00,
2013-05-13 08:53:00,84.3,76.0,29.96,ENE,73,3.0,4.0,75,0.00,,,0.00,weatherlink.com 1.10,2013-05-13 12:53:00,
2013-05-13 09:08:00,84.2,76.0,29.96,East,99,0.0,5.0,76,0.00,,,0.00,weatherlink.com 1.10,2013-05-13 13:08:00,
2013-05-13 09:23:00,86.2,76.0,29.96,NE,46,0.0,3.0,72,0.00,,,0.00,weatherlink.com 1.10,2013-05-13 13:23:00,
2013-05-13 09:38:00,86.3,75.0,29.96,ENE,78,0.0,4.0,70,0.00,,,0.00,weatherlink.com 1.10,2013-05-13 13:38:00,
2013-05-13 09:53:00,86.3,75.0,29.97,ENE,58,4.0,7.0,70,0.00,,,0.00,weatherlink.com 1.10,2013-05-13 13:53:00,
2013-05-13 10:08:00,86.9,76.0,29.97,ESE,104,3.0,7.0,69,0.00,,,0.00,weatherlink.com 1.10,2013-05-13 14:08:00,
2013-05-13 10:23:00,85.8,75.0,29.97,ENE,60,7.0,7.0,69,0.00,,,0.00,weatherlink.com 1.10,2013-05-13 14:23:00,
2013-05-13 10:38:00,86.3,76.0,29.96,ENE,61,8.0,9.0,72,0.00,,,0.00,weatherlink.com 1.10,2013-05-13 14:38:00,
2013-05-13 10:53:00,87.1,76.0,29.96,NE,51,5.0,11.0,70,0.00,,,0.00,weatherlink.com 1.10,2013-05-13 14:53:00,
2013-05-13 11:08:00,86.2,75.0,29.96,East,91,5.0,9.0,70,0.00,,,0.00,weatherlink.com 1.10,2013-05-13 15:08:00,
2013-05-13 11:23:00,86.5,76.0,29.96,ENE,74,1.0,7.0,70,0.00,,,0.00,weatherlink.com 1.10,2013-05-13 15:23:00,
2013-05-13 11:38:00,85.8,76.0,29.95,NE,37,4.0,9.0,73,0.00,,,0.00,weatherlink.com 1.10,2013-05-13 15:38:00,
2013-05-13 11:53:00,84.9,77.0,29.95,SE,132,3.0,10.0,76,0.02,,,0.02,weatherlink.com 1.10,2013-05-13 15:53:00,
2013-05-13 12:08:00,85.1,78.0,29.95,WSW,238,1.0,7.0,79,0.02,,,0.02,weatherlink.com 1.10,2013-05-13 16:08:00,
2013-05-13 12:23:00,85.6,76.0,29.94,ESE,115,3.0,11.0,74,0.02,,,0.02,weatherlink.com 1.10,2013-05-13 16:23:00,
2013-05-13 12:38:00,85.6,76.0,29.95,East,100,6.0,12.0,73,0.02,,,0.02,weatherlink.com 1.10,2013-05-13 16:38:00,
2013-05-13 12:53:00,85.1,77.0,29.94,East,91,5.0,11.0,77,0.00,,,0.02,weatherlink.com 1.10,2013-05-13 16:53:00,
2013-05-13 13:08:00,85.3,77.0,29.93,ENE,61,8.0,11.0,76,0.00,,,0.02,weatherlink.com 1.10,2013-05-13 17:08:00,
2013-05-13 13:23:00,85.4,77.0,29.93,ENE,66,7.0,10.0,77,0.00,,,0.02,weatherlink.com 1.10,2013-05-13 17:23:00,
2013-05-13 13:38:00,86.9,77.0,29.93,ENE,64,4.0,13.0,72,0.00,,,0.02,weatherlink.com 1.10,2013-05-13 17:38:00,
2013-05-13 13:53:00,87.1,77.0,29.92,East,84,4.0,15.0,72,0.00,,,0.02,weatherlink.com 1.10,2013-05-13 17:53:00,
2013-05-13 14:08:00,87.1,77.0,29.91,NE,46,5.0,14.0,72,0.00,,,0.02,weatherlink.com 1.10,2013-05-13 18:08:00,
2013-05-13 14:38:00,87.0,77.0,29.90,NNE,13,13.0,14.0,73,0.00,,,0.02,weatherlink.com 1.10,2013-05-13 18:38:00,
2013-05-13 14:53:00,86.7,77.0,29.90,ESE,109,6.0,16.0,72,0.00,,,0.02,weatherlink.com 1.10,2013-05-13 18:53:00,
2013-05-13 15:09:00,86.9,78.0,29.89,ESE,120,12.0,14.0,74,0.00,,,0.02,weatherlink.com 1.10,2013-05-13 19:09:00,
2013-05-13 15:23:00,87.0,77.0,29.89,NE,53,6.0,11.0,72,0.00,,,0.02,weatherlink.com 1.10,2013-05-13 19:23:00,
2013-05-13 15:38:00,86.0,77.0,29.89,NE,40,5.0,9.0,74,0.00,,,0.02,weatherlink.com 1.10,2013-05-13 19:38:00,
2013-05-13 15:53:00,85.1,77.0,29.90,East,83,7.0,10.0,76,0.00,,,0.02,weatherlink.com 1.10,2013-05-13 19:53:00,
2013-05-13 16:08:00,82.8,75.0,29.90,West,259,1.0,6.0,77,0.00,,,0.02,weatherlink.com 1.10,2013-05-13 20:08:00,
2013-05-13 16:24:00,82.5,75.0,29.90,West,281,0.0,5.0,78,0.00,,,0.02,weatherlink.com 1.10,2013-05-13 20:24:00,
2013-05-13 16:39:00,82.8,76.0,29.89,West,273,1.0,4.0,79,0.00,,,0.02,weatherlink.com 1.10,2013-05-13 20:39:00,
2013-05-13 16:54:00,83.8,76.0,29.90,East,91,5.0,10.0,78,0.00,,,0.02,weatherlink.com 1.10,2013-05-13 20:54:00,
2013-05-13 17:09:00,83.8,76.0,29.90,East,91,3.0,9.0,77,0.00,,,0.02,weatherlink.com 1.10,2013-05-13 21:09:00,
2013-05-13 17:24:00,83.9,75.0,29.90,NE,53,2.0,10.0,75,0.00,,,0.02,weatherlink.com 1.10,2013-05-13 21:24:00,
2013-05-13 17:39:00,84.2,75.0,29.90,ESE,110,5.0,11.0,73,0.00,,,0.02,weatherlink.com 1.10,2013-05-13 21:39:00,
2013-05-13 17:54:00,84.2,74.0,29.91,ENE,78,7.0,9.0,72,0.00,,,0.02,weatherlink.com 1.10,2013-05-13 21:54:00,
2013-05-13 18:09:00,83.9,74.0,29.91,East,86,3.0,10.0,73,0.00,,,0.02,weatherlink.com 1.10,2013-05-13 22:09:00,
2013-05-13 18:24:00,83.2,75.0,29.92,East,84,11.0,11.0,76,0.00,,,0.02,weatherlink.com 1.10,2013-05-13 22:24:00,
2013-05-13 18:39:00,82.5,75.0,29.92,ESE,113,5.0,8.0,78,0.00,,,0.02,weatherlink.com 1.10,2013-05-13 22:39:00,
2013-05-13 18:54:00,81.9,74.0,29.93,ENE,66,5.0,7.0,78,0.00,,,0.02,weatherlink.com 1.10,2013-05-13 22:54:00,
2013-05-13 19:09:00,81.7,75.0,29.93,ENE,74,2.0,8.0,79,0.00,,,0.02,weatherlink.com 1.10,2013-05-13 23:09:00,
2013-05-13 19:24:00,81.5,75.0,29.93,NE,45,3.0,8.0,80,0.00,,,0.02,weatherlink.com 1.10,2013-05-13 23:24:00,
2013-05-13 19:39:00,81.1,75.0,29.94,SSE,153,1.0,6.0,82,0.00,,,0.02,weatherlink.com 1.10,2013-05-13 23:39:00,
2013-05-13 19:54:00,80.6,75.0,29.94,ESE,122,0.0,3.0,82,0.00,,,0.02,weatherlink.com 1.10,2013-05-13 23:54:00,
2013-05-13 20:09:00,80.2,75.0,29.94,ESE,110,0.0,2.0,83,0.00,,,0.02,weatherlink.com 1.10,2013-05-14 00:09:00,
2013-05-13 20:24:00,79.7,75.0,29.95,SE,133,0.0,3.0,85,0.00,,,0.02,weatherlink.com 1.10,2013-05-14 00:24:00,
2013-05-13 20:39:00,79.1,74.0,29.95,ESE,107,1.0,1.0,85,0.00,,,0.02,weatherlink.com 1.10,2013-05-14 00:39:00,
2013-05-13 20:54:00,78.6,74.0,29.95,ESE,107,0.0,1.0,86,0.00,,,0.02,weatherlink.com 1.10,2013-05-14 00:54:00,
2013-05-13 21:09:00,78.3,74.0,29.96,ESE,106,0.0,1.0,87,0.00,,,0.02,weatherlink.com 1.10,2013-05-14 01:09:00,
2013-05-13 21:24:00,78.3,74.0,29.97,ESE,107,0.0,1.0,87,0.00,,,0.02,weatherlink.com 1.10,2013-05-14 01:24:00,
2013-05-13 21:39:00,78.1,74.0,29.97,SE,134,1.0,1.0,87,0.00,,,0.02,weatherlink.com 1.10,2013-05-14 01:39:00,
2013-05-13 21:54:00,77.7,74.0,29.97,ESE,118,0.0,1.0,88,0.00,,,0.02,weatherlink.com 1.10,2013-05-14 01:54:00,
2013-05-13 22:09:00,77.4,74.0,29.97,SE,146,0.0,2.0,89,0.00,,,0.02,weatherlink.com 1.10,2013-05-14 02:09:00,
2013-05-13 22:24:00,77.1,74.0,29.97,SE,124,0.0,2.0,89,0.00,,,0.02,weatherlink.com 1.10,2013-05-14 02:24:00,
2013-05-13 22:39:00,77.2,74.0,29.97,SE,131,0.0,1.0,89,0.00,,,0.02,weatherlink.com 1.10,2013-05-14 02:39:00,
2013-05-13 22:54:00,77.1,74.0,29.97,SE,129,0.0,1.0,89,0.00,,,0.02,weatherlink.com 1.10,2013-05-14 02:54:00,
2013-05-13 23:09:00,77.1,74.0,29.96,SE,131,0.0,2.0,89,0.00,,,0.02,weatherlink.com 1.10,2013-05-14 03:09:00,
2013-05-13 23:24:00,77.1,73.0,29.97,SE,131,0.0,2.0,88,0.00,,,0.02,weatherlink.com 1.10,2013-05-14 03:24:00,
2013-05-13 23:39:00,76.8,73.0,29.96,SE,131,0.0,1.0,88,0.00,,,0.02,weatherlink.com 1.10,2013-05-14 03:39:00,
2013-05-13 23:54:00,76.4,73.0,29.96,SE,131,0.0,1.0,89,0.00,,,0.02,weatherlink.com 1.10,2013-05-14 03:54:00,